Other Public Products
Issued by NWS Grand Forks, ND

Home | Current Version | Previous Version | Graphics & Text | Print | Product List | Glossary On
Versions: 1 2 3 4 5 6 7 8 9 10 11 12 13 14 15 16 17 18 19 20 21 22 23 24 25 26 27 28 29 30 31 32 33 34 35 36 37 38 39 40 41 42 43 44 45 46 47 48 49 50
646
FPUS83 KFGF 232110
OPUFGF
PRAIRIE TO PINES WEATHER ROUNDUP
NATIONAL WEATHER SERVICE EASTERN NORTH DAKOTA/GRAND FORKS ND
400 PM CDT MON MAY 23 2016

 **SATELLITE DATA USED TO AUGMENT SKY COVER AT AUTOMATED STATIONS**
 *****  WEATHER ACROSS EASTERN NORTH DAKOTA  *****

CITY           SKY/WX    TMP DP  RH WIND       PRES   REMARKS
GRAND FORKS    MOSUNNY   81  46  29 SW12      29.65R
GRAND FORKS AF SUNNY     80  43  26 W10       29.65R
GRAND CITY NWS   N/A     81 N/A N/A SW13        N/A
BUXTON           N/A     82  46  27 W12         N/A
DEVILS LAKE    MOSUNNY   75  41  29 W12       29.66R
FARGO          CLOUDY    83  44  25 W12       29.66F
WAHPETON ARPT  CLOUDY    79  41  25 W6        29.68S
$$

 *****  WEATHER ACROSS CENTRAL AND WESTERN NORTH DAKOTA  *****

CITY           SKY/WX    TMP DP  RH WIND       PRES   REMARKS
JAMESTOWN      MOSUNNY   78  45  30 S10       29.67S
BISMARCK       MOSUNNY   76  35  22 SW12      29.67S
MINOT          SUNNY     81  30  15 SW18G35   29.61F
MINOT AFB      MOSUNNY   74  33  22 W20G28    29.60S
GARRISON         N/A     77  33  20 W21G31    29.65S
WILLISTON      MOSUNNY   73  33  23 SW24G32   29.63R
DICKINSON      MOSUNNY   70  29  21 W18G24    29.68S
HETTINGER      PTSUNNY   71  31  22 VRB3      29.71S
$$

 *****  OTHER OBSERVATIONS NORTHEAST NORTH DAKOTA  *****

CITY           SKY/WX    TMP DP  RH WIND       PRES   REMARKS
WALHALLA       FAIR      79  45  29 SW12G17   29.62S
LANGDON        FAIR      77  48  36 SW17G24   29.65S
CAVALIER       FAIR      79  46  31 W15       29.63R
GRAFTON        FAIR      79  46  31 W12       29.66R
CANDO          FAIR      77  37  24 SW20G29   29.66R
FORT TOTTEN      N/A     78  38  23 W8        29.95S
ROLLA            N/A     75  32  20 SW23G31   29.63S
RUGBY          FAIR      79  32  18 W24G33    29.62S
 ***** THE ABOVE OBSERVATIONS ARE NON NWS ARE NOT QUALITY
        CONTROLLED AND MAY MIS-REPORT RAIN FOR SNOW...
$$

 *****  OTHER OBSERVATIONS SOUTHEAST NORTH DAKOTA *****

CITY           SKY/WX    TMP DP  RH WIND       PRES   REMARKS
COOPERSTOWN    NOT AVBL
VALLEY CITY    FAIR      77  48  36 SW9       29.70S
OAKES            N/A    N/A N/A N/A MISG        N/A
GWINNER        MOCLDY    81  48  32 S8        29.69S
SHEYENNE NWR     N/A     80  51  35 W7        29.95
BUFFALO          N/A     79  44  29 SW5         N/A
WYNDMERE         N/A     82  48  30 SW9         N/A
 ***** THE ABOVE OBSERVATIONS ARE NON NWS ARE NOT QUALITY
       CONTROLLED AND MAY MIS-REPORT RAIN FOR SNOW...
$$

  *****  WEATHER ACROSS NORTHERN MINNESOTA  *****

CITY           SKY/WX    TMP DP  RH WIND       PRES   REMARKS
FLAG ISLAND    PTSUNNY   73  48  40 W6        29.63R
WARROAD        SUNNY     77  50  38 W9        29.65R
ROSEAU         MOSUNNY   79  46  31 W5        29.65R
HALLOCK        SUNNY     81  39  22 W15       29.63R
THF RVR FALLS  MOSUNNY   75  54  46 W6        29.69S
HALSTAD        NOT AVBL
FOSSTON        MOSUNNY   75  52  43 SW8       29.70S
BAUDETTE       PTSUNNY   80  48  32 W12G18    29.65R
WASKISH        CLOUDY    75  57  53 MISG      29.68S
CROOKSTON      MOSUNNY   77  54  44 SW5       29.67S
$$
  *****  WEATHER ACROSS CENTRAL AND WEST MINNESOTA  *****

CITY           SKY/WX    TMP DP  RH WIND       PRES   REMARKS
BEMIDJI        MOSUNNY   78  51  39 W10G17    29.70R
PARK RAPIDS    MOSUNNY   79  55  43 S9        29.71R
WADENA         MOSUNNY   77  55  47 SW13      29.72S
DETROIT LAKES  PTSUNNY   79  45  29 NW6       29.71S
MOORHEAD       CLOUDY    81  45  28 W10G16    29.67F
FERGUS FALLS   MOSUNNY   79  48  34 CALM      29.66S
ELBOW LAKE     MOCLDY    76  56  48 W9        29.71S
MORRIS MN      MOSUNNY   79  57  47 SW8       29.71S
STAPLES        MOSUNNY   77  54  44 S7        29.73F
WHEATON        PTSUNNY   81  55  41 CALM      29.71S
$$
  *****  WEATHER ELSEWHERE ACROSS MINNESOTA  *****

CITY           SKY/WX    TMP DP  RH WIND       PRES   REMARKS
DULUTH         CLOUDY    75  56  51 W12       29.75R
INTRNTL FALLS  PTSUNNY   75  60  59 MISG      29.66S
ELY            CLOUDY    73  54  49 SW13G21   29.71R
CLOQUET        CLOUDY    73  55  53 W9        29.76S
BRAINERD       PTSUNNY   75  60  59 S14       29.74F
HIBBING        CLOUDY    75  56  51 SW13G21   29.72S
ALEXANDRIA     LGT RAIN  77  55  46 S9        29.74F
SAINT CLOUD    CLOUDY    74  60  61 W9        29.74F
MINNEAPOLIS    CLOUDY    79  59  50 S20G30    29.74F
$$

  *****  WEATHER ACROSS SOUTH DAKOTA  *****

CITY           SKY/WX    TMP DP  RH WIND       PRES   REMARKS
SIOUX FALLS    CLOUDY    74  60  61 W7        29.74S
BROOKINGS      PTSUNNY   73  60  63 SW9       29.73F
WATERTOWN      PTSUNNY   73  58  59 S9        29.74S
HURON          CLOUDY    76  57  51 S10       29.70F
SISSETON         N/A     77  53  43 W6        29.69S
ABERDEEN       MOSUNNY   79  52  38 SW8       29.69F
MITCHELL       CLOUDY    76  57  51 SW12      29.72F
PIERRE         MOSUNNY   78  46  32 W10       29.67F
MOBRIDGE       SUNNY     77  51  40 SE10      29.67S
RAPID CITY     SUNNY     76  29  17 SW17      29.71S
$$

  *****  SOME WEATHER IN NEARBY STATES *****

CITY           SKY/WX    TMP DP  RH WIND       PRES   REMARKS
GLASGOW MT     CLOUDY    57  48  72 SW15G22   29.66R
GREAT FALLS MT LGT RAIN  50  40  68 W13       29.75S
CHEYENNE WY    CLOUDY    62  36  37 SW14G25   29.90R
SCOTTSBLUFF NE CLOUDY    67  33  28 SW16G22   29.82S
OMAHA NE       CLOUDY    75  63  66 SE26G35   29.80R
DES MOINES IA  CLOUDY    75  59  57 SW10      29.86F
DAVENPORT IA   MOSUNNY   85  44  23 S21       29.90F
CHICAGO IL     MOSUNNY   81  41  24 VRB5      29.93F
EAU CLAIRE WI  MOSUNNY   83  53  35 S20G30    29.77S
LA CROSSE WI   MOSUNNY   86  44  23 S22       29.81F
$$

  *****  SOME NATIONAL WEATHER *****

CITY           SKY/WX    TMP DP  RH WIND       PRES   REMARKS
LA GUARDIA NY  PTSUNNY   72  55  55 S16       29.86S
RALEIGH NC     PTSUNNY   67  51  56 N6        29.98F
ATLANTA GA     MOSUNNY   81  47  30 NW9       29.97F
NEW ORLEANS LA PTSUNNY   85  63  47 NE10      29.96F
OKLAHOMA CITY  CLOUDY    74  68  81 SE10      29.85R
ALBUQUERQUE NM MOSUNNY   79  22  12 S13       29.90F
SALT LAKE CITY PTSUNNY   65  32  29 CALM      29.87F
LOS ANGELES CA MOSUNNY   70  46  42 SE10G17   29.91F
BOISE ID       MOSUNNY   67  31  26 SW9       29.85F
SEATTLE WA     CLOUDY    63  46  54 W3        29.94S
$$

*** WEATHER ACROSS MANITOBA...SASKATCHEWAN AND ONTARIO ***
                ***ONTARIO***

CITY           SKY/WX    TMP DP  RH WIND       PRES   REMARKS
GERALDTON      PTSUNNY   77  66  69 MISG      29.67F
THUNDER BAY    PTSUNNY   82  52  34 SW13G24   29.66F
SIOUX LOOKOUT  PTSUNNY   72  59  64 W9G22     29.63R
TORONTO        MOSUNNY   77  46  33 SE10      29.94F
BIG TROUT LK   LGT RAIN  50  48  93 NE12G20   29.41R
PICKLE LAKE    PTSUNNY   66  57  72 SW23G31   29.54S
DRYDEN         PTSUNNY   72  57  60 SW16G26   29.63R
KENORA         PTSUNNY   75  48  38 W8        29.64R
$$
                *** MANITOBA***

CITY           SKY/WX    TMP DP  RH WIND       PRES   REMARKS
BRANDON        PTSUNNY   77  37  24 SW17G24   29.58S
DAUPHIN        PTSUNNY   73  39  29 W15G29    29.57R
ISLAND LAKE    CLOUDY    45  45 100 NW8G17    29.64R
PILOT MOUND      N/A     73  41  31 SW21G26     N/A
THE PAS        CLOUDY    52  46  82 N12       29.61R
THOMPSON       CLOUDY    43  37  81 NE13      29.73R
WINNIPEG       PTSUNNY   79  45  29 W14G20    29.59S
LYNN LAKE      CLOUDY    52  39  62 S7        29.74R
CHURCHILL      CLOUDY    28  25  86 N18G26    29.88R WCI  16
GILLAM         PTSUNNY   43  32  65 NE9G17    29.74R
$$
                ***SASKATCHEWAN***

CITY           SKY/WX    TMP DP  RH WIND       PRES   REMARKS
ESTEVAN        PTSUNNY   72  37  28 SW20G28   29.59S
KINDERSLEY     LGT RAIN  52  48  87 N18       29.55R
LLOYDMINSTER   CLOUDY    54  46  76 N12       29.63R
PRINCE ALBERT  PTSUNNY   57  54  88 NE12G17   29.53R
REGINA         CLOUDY    57  39  51 SW14G22   29.55S
YORKTON        SUNNY     66  39  37 SW15G24   29.56R   C1F1C2F2C3F3C4F4C5F5C6F6C7F7C8F8C9F9CaFaCbFbCcFcCdFdCe!



USA.gov is the U.S. government's official web portal to all federal, state and local government web resources and services.